CAPE
1219 1058 812 857 443 19 82 39 61 71 150 70 133 114 170 171 185 102 294 577 867 1429 2133 2426 3008 2691 2539 2702 3156 2400 2224 2058 2056 1928 1760 1640 1496 1435 1347 1263 1348 1533 1414 1320 1285 1233 1388 1586 1242
0 698 1134 1083 83 0 0 0 37 14 62 162 185 196 149 140 202 204 485 776 961 1512 1864 2076 2998 3072 2506 2563 2683 2616 2150 2037 2021 1970 1677 1518 1443 1303 1344 1615 1643 1525 1419 1372 1420 1347 1387 1468 1163
0 574 439 547 169 67 81 12 7 7 237 396 180 205 112 189 190 145 363 862 1078 1388 1637 2111 3146 2960 2513 2461 2613 2425 2306 2176 2224 1860 1539 1498 1372 1228 1452 1525 1253 1270 1230 1250 1208 1344 1405 1429 1415
153 1024 662 324 197 56 0 35 51 111 288 272 270 135 72 105 243 97 463 758 1086 1248 1628 2690 2752 2549 2456 2593 2452 2462 2279 2143 1810 1590 1504 1496 1291 1435 1380 1348 1379 1304 1362 1381 1360 1529 1420 1374 1517
802 894 49 221 235 77 29 88 339 420 194 278 144 199 18 95 203 245 254 452 880 1311 1728 2118 2950 2991 2663 2426 2483 2316 1950 1982 1847 1678 1631 1721 1467 1433 1550 1711 1561 1496 1528 1186 1381 1314 1257 1390 1419
744 352 31 159 86 270 101 381 283 479 170 279 322 247 72 66 226 235 256 272 806 1265 1641 2193 2652 2523 2114 1648 1657 1501 1593 1652 1982 1758 2047 1524 1616 1899 1052 822 880 1430 1157 980 1079 1077 1102 1136 1101
519 6 53 68 125 218 415 466 300 93 48 130 227 136 0 2 83 333 403 635 904 1503 1748 1781 1611 1324 2019 1862 1986 2095 2070 1399 1296 1336 1406 1176 1165 1046 901 1715 1346 1317 1088 845 838 892 915 899 938
24 46 106 33 137 176 347 570 444 122 64 6 247 118 0 0 0 598 594 684 1079 1348 1458 1395 1444 1563 1862 1709 1764 1779 1989 1860 1791 1880 2038 1654 1484 1324 1803 1873 1651 1244 1095 915 1039 911 929 1219 1180
42 61 50 50 71 127 347 423 272 10 45 60 83 132 1 2 375 488 409 587 941 1118 1175 1220 1306 1312 1124 971 1433 1808 1947 1805 1697 1579 1694 1763 810 1008 1415 1586 1637 1320 1310 1276 1070 735 690 878 1181
45 61 95 105 44 174 431 299 369 106 173 259 224 85 54 233 286 178 85 415 809 824 876 1102 1080 1078 1087 1372 1020 941 1118 1001 628 10 437 786 787 553 1032 1092 1672 1525 1433 1325 1383 1044 1129 899 297
14 45 269 580 643 363 508 358 400 229 185 227 381 167 87 67 82 191 178 460 650 654 848 616 637 800 1032 891 583 662 912 734 398 0 128 187 510 419 888 871 1479 966 1253 665 715 355 466 396 98
25 66 270 767 790 512 532 347 238 380 199 171 237 191 193 93 27 241 474 570 338 502 506 524 752 611 780 440 400 524 736 476 303 90 0 759 567 160 210 507 325 318 463 632 308 252 144 141 177
17 17 196 645 523 676 608 333 814 237 219 140 169 107 168 186 111 331 338 190 370 602 436 397 487 675 747 492 415 306 316 488 297 117 16 195 60 153 218 101 63 46 125 183 214 208 92 79 80
2 13 107 550 444 646 891 562 609 372 14 46 125 124 75 0 50 33 10 96 409 476 338 562 693 821 553 486 447 383 393 306 71 67 18 0 193 112 404 149 260 443 440 696 488 349 345 208 164
0 3 108 564 573 442 643 460 451 350 62 0 40 8 10 0 30 75 182 195 325 473 374 682 726 686 385 338 165 188 207 214 132 34 1 0 305 147 45 2 41 186 165 228 468 217 243 542 531
0 0 3 68 151 622 360 231 538 503 306 218 243 330 203 30 40 91 243 275 279 429 343 792 996 620 300 177 142 255 117 67 43 156 31 41 253 74 74 70 5 8 7 5 197 217 370 1 64
0 0 5 23 234 726 452 338 660 475 320 266 188 216 164 141 145 110 166 226 353 418 578 544 1058 562 329 316 361 128 159 66 0 21 19 101 344 141 50 0 0 0 1 21 2 11 181 129 184
0 0 25 59 432 642 570 492 848 638 545 284 89 152 229 120 330 254 153 369 395 376 346 444 730 738 511 353 384 123 4 0 0 0 0 54 386 1 0 0 0 0 1 44 6 16 282 418 362
0 0 0 59 366 611 662 651 681 442 356 335 155 190 381 230 272 317 263 513 288 428 429 273 418 426 464 255 130 37 8 0 0 0 5 354 531 44 0 0 66 167 159 173 127 53 347 164 29
0 0 0 104 223 496 368 612 491 433 277 204 130 324 253 406 240 308 375 471 472 536 436 289 292 480 460 186 2 12 0 0 0 43 373 399 686 592 232 0 110 442 1002 601 404 276 307 0 70
0 0 0 43 263 244 199 191 689 772 985 493 219 478 349 315 267 297 344 440 525 693 499 292 321 447 265 57 6 25 103 177 256 382 451 757 847 334 801 592 540 767 665 339 64 64 450 5 25
0 0 97 216 59 29 57 46 111 303 441 315 232 213 250 160 207 357 377 455 570 702 550 388 336 364 232 107 118 119 75 107 2 13 165 670 563 187 957 733 677 490 771 342 397 847 504 28 11
0 80 82 53 24 1 133 64 23 202 458 172 71 23 9 129 198 443 448 629 724 729 584 500 406 335 273 247 177 277 21 9 6 119 455 299 40 0 170 1157 1255 993 910 583 683 660 561 289 93
0 1 1 7 1 0 0 93 9 139 108 78 183 107 44 17 210 435 559 741 763 805 630 662 445 258 142 335 229 256 202 94 618 483 287 728 98 0 0 387 1008 985 940 798 873 901 765 451 308
0 0 0 0 0 0 0 0 0 13 110 11 0 31 33 10 260 361 646 782 675 857 780 793 574 338 179 435 370 494 355 151 462 383 545 847 672 651 563 864 939 1081 1068 956 978 945 630 744 746
0 0 0 0 0 0 0 0 33 65 56 34 6 3 77 112 328 378 550 678 901 899 969 833 732 582 435 708 504 428 430 456 304 313 514 402 442 524 514 704 889 821 1142 909 811 1108 635 824 1009
0 0 0 0 0 0 0 14 192 104 1 0 39 50 2 212 335 442 609 691 846 939 894 883 836 911 848 700 832 531 363 451 547 300 447 488 437 832 970 1013 849 541 590 610 1174 1123 1205 1045 717
0 0 0 0 0 2 88 84 8 166 94 2 344 556 199 306 369 414 609 694 791 876 895 921 1099 1126 1063 663 830 896 594 759 761 717 517 780 851 894 1258 681 27 0 11 1 1461 1384 1256 984 982
0 0 0 0 0 0 14 71 36 0 52 45 169 238 572 724 643 702 729 810 960 1253 1104 1191 1321 1199 990 849 829 1125 931 996 998 959 884 715 1174 1015 705 376 124 3 71 884 1439 1250 1209 1127 1097
0 0 0 0 5 0 0 5 8 0 54 159 375 428 438 533 1005 1026 904 840 858 1424 1508 1591 1419 1369 1182 1093 1101 1036 1156 1024 902 791 660 566 580 867 817 699 673 637 1150 1440 1177 1143 1464 1201 1104
CIN
-187 -203 -222 -175 -109 -112 -36 -87 -103 -68 -53 -129 -62 -87 -93 -131 -99 -100 -234 -156 -92 -20 -1 0 0 0 0 0 0 0 0 0 0 -2 -2 0 -1 -1 -8 -3 -2 0 -2 -4 -6 -10 -12 -5 -17
0 -212 -184 -103 -48 0 0 -20 -68 -116 -87 -87 -102 -116 -118 -162 -213 -259 -164 -113 -101 -33 -2 -1 -1 0 0 0 0 0 0 0 0 0 0 0 0 -1 -2 -1 -1 0 0 0 -2 -8 -10 -6 -16
0 -212 -162 -101 -56 -43 -65 -110 -122 -136 -125 -46 -56 -109 -144 -154 -214 -218 -198 -97 -77 -41 -11 -1 0 0 0 0 0 0 0 0 0 0 0 0 0 0 0 0 -1 -1 -4 -3 -5 -3 -1 -10 -6
-236 -165 -137 -72 -23 -88 0 -188 -120 -100 -45 -43 -33 -145 -155 -144 -164 -223 -162 -108 -73 -54 -19 0 0 0 0 0 0 0 -2 0 0 0 0 0 0 0 0 0 0 0 0 0 0 0 0 -2 -2
-179 -139 -87 -45 -27 -98 -162 -121 -98 -45 -27 -18 -64 -97 -32 -128 -175 -184 -178 -123 -95 -40 -7 0 0 0 0 0 0 0 0 0 0 0 0 0 0 0 0 0 0 0 0 0 0 0 -1 0 -3
-85 -121 -49 -81 -72 -50 -101 -108 -139 -36 -40 -48 -73 -81 -66 -90 -111 -134 -142 -143 -108 -78 -22 -1 0 0 -9 -11 -3 0 0 0 0 0 0 0 0 0 -1 -1 0 0 0 0 -1 -4 -6 -7 -10
-108 -60 -58 -107 -80 -87 -18 -39 -105 -76 -78 -65 -82 -105 0 -19 -102 -96 -108 -114 -99 -45 -29 -15 -14 -36 -6 -5 0 0 0 -2 0 -3 0 -1 -2 0 -3 0 0 0 0 -1 -13 -10 -8 -16 -12
-110 -102 -113 -170 -97 -116 -62 -23 -85 -69 -90 -121 -45 -95 0 0 0 -67 -103 -93 -67 -45 -52 -47 -32 -35 -13 -2 0 0 0 0 0 0 0 0 0 0 0 0 0 0 0 -4 -12 -12 -15 -10 -8
-145 -61 -133 -114 -148 -119 -41 -23 -64 -126 -93 -61 -80 -100 -18 -42 -75 -111 -81 -74 -60 -41 -69 -69 -41 -56 -70 -60 -6 -2 0 -1 0 -5 -1 -2 -41 -19 -5 -3 -1 0 0 -2 -6 -17 -23 -18 -5
-49 -83 -98 -175 -198 -112 -39 -55 -66 -83 -93 -119 -74 -123 -109 -77 -60 -99 -136 -88 -59 -79 -81 -64 -60 -62 -64 -34 -43 -36 -30 -53 -60 -51 -85 -55 -47 -62 -16 -26 -4 0 -1 -6 -6 -8 -8 -16 -101
-43 -65 -82 -99 -83 -46 -49 -46 -60 -140 -115 -141 -78 -84 -78 -76 -81 -80 -105 -110 -109 -127 -93 -113 -109 -77 -60 -76 -104 -81 -50 -59 -84 0 -113 -98 -62 -80 -39 -48 -26 -59 -38 -57 -12 -59 -46 -76 -138
-18 -36 -74 -79 -72 -46 -66 -66 -79 -78 -131 -160 -120 -64 -64 -66 -69 -115 -76 -58 -132 -122 -122 -113 -86 -111 -90 -138 -145 -109 -66 -88 -106 -129 0 -72 -85 -150 -131 -101 -103 -129 -115 -87 -92 -97 -121 -127 -107
-27 -21 -60 -64 -78 -59 -90 -68 -40 -92 -130 -136 -91 -48 -39 -45 -79 -81 -76 -109 -113 -95 -128 -152 -133 -117 -110 -132 -141 -120 -106 -87 -103 -123 -86 -111 -95 -146 -127 -180 -175 -228 -197 -158 -128 -124 -138 -143 -142
-33 -23 -38 -54 -63 -44 -78 -87 -56 -70 -128 -158 -99 -59 -79 0 -115 -163 -133 -109 -109 -114 -140 -152 -138 -116 -141 -146 -122 -106 -113 -103 -143 -136 -151 0 -122 -169 -128 -190 -145 -130 -162 -126 -108 -112 -110 -111 -133
0 -48 -32 -58 -60 -44 -82 -74 -82 -83 -160 0 -102 -93 -84 -7 -125 -105 -128 -122 -124 -128 -175 -167 -156 -133 -140 -128 -142 -128 -132 -118 -117 -131 -24 0 -118 -176 -240 -18 -238 -189 -211 -164 -147 -155 -149 -116 -116
0 0 -37 -76 -69 -76 -70 -64 -112 -122 -137 -97 -84 -39 -30 -136 -91 -129 -152 -142 -131 -164 -158 -118 -63 -118 -144 -143 -146 -122 -128 -127 -133 -73 -169 -111 -125 -193 -196 -155 -126 -289 -293 -238 -181 -183 -134 -105 -221
0 0 -39 -59 -88 -73 -74 -76 -163 -201 -149 -79 -95 -59 -89 -106 -122 -194 -172 -175 -174 -162 -115 -119 -65 -128 -142 -143 -113 -131 -102 -113 0 -80 -82 -100 -125 -186 -91 0 0 0 -21 -286 -90 -126 -153 -177 -173
0 0 -34 -38 -54 -75 -73 -74 -172 -160 -106 -187 -185 -132 -77 -136 -131 -162 -186 -163 -159 -155 -129 -125 -108 -105 -127 -137 -110 -127 -35 0 -46 -13 0 -131 -125 -17 0 0 0 0 -18 -210 -84 -218 -146 -134 -151
0 0 0 -28 -55 -65 -69 -95 -161 -243 -172 -149 -130 -215 -55 -111 -150 -182 -204 -164 -200 -158 -145 -147 -129 -128 -123 -144 -142 -153 -122 0 0 0 -166 -125 -115 -234 0 0 -95 -190 -183 -161 -231 -225 -125 -170 -260
0 0 0 -70 -46 -54 -148 -132 -209 -303 -369 -334 -184 -251 -199 -74 -170 -176 -200 -204 -185 -180 -164 -157 -132 -118 -116 -141 -38 -92 -6 0 0 -76 -111 -103 -88 -130 -203 0 -167 -139 -84 -124 -158 -152 -116 0 -245
0 0 0 -37 -76 -177 -167 -145 -173 -252 -192 -263 -295 -197 -266 -174 -123 -186 -201 -210 -211 -193 -186 -183 -148 -132 -154 -190 -202 -149 -150 -124 -91 -96 -102 -80 -61 -92 -110 -127 -124 -102 -110 -101 -176 -100 -111 -70 -248
0 0 -33 -39 -49 -61 -201 -112 -240 -274 -266 -295 -315 -268 -282 -214 -148 -152 -174 -199 -254 -214 -195 -180 -164 -147 -159 -192 -174 -144 -135 -87 -194 -85 -105 -92 -106 -96 -76 -85 -102 -87 -101 -103 -93 -82 -125 -202 -143
0 -74 -83 -152 -147 -183 -186 -140 -192 -352 -289 -363 -373 -356 -399 -230 -168 -183 -181 -211 -261 -200 -226 -206 -194 -142 -137 -175 -162 -127 -171 -172 -172 -118 -76 -101 -156 0 -117 -78 -58 -78 -83 -99 -79 -72 -88 -147 -149
0 -86 -85 -313 -246 -4 0 -120 -169 -309 -321 -331 -384 -261 -281 -298 -171 -165 -126 -199 -249 -215 -218 -205 -206 -191 -196 -155 -179 -133 -125 -127 -70 -94 -108 -103 -163 0 0 -118 -86 -72 -81 -84 -70 -74 -82 -119 -147
0 0 0 0 0 -7 0 0 0 -317 -268 -330 0 -498 -340 -408 -154 -155 -127 -203 -173 -269 -244 -211 -190 -192 -210 -150 -159 -126 -134 -160 -81 -83 -88 -85 -101 -120 -108 -97 -95 -85 -78 -76 -68 -63 -72 -80 -94
0 0 0 0 -14 0 0 0 -80 -286 -279 -274 -353 -284 -529 -362 -237 -191 -228 -207 -255 -258 -242 -218 -211 -180 -177 -122 -144 -138 -135 -137 -129 -104 -105 -114 -105 -110 -125 -113 -127 -121 -101 -101 -89 -81 -96 -77 -72
0 0 0 0 0 0 0 -20 -216 -393 -184 0 -248 -239 -46 -392 -245 -219 -176 -224 -239 -256 -254 -246 -229 -175 -154 -149 -121 -131 -148 -133 -111 -126 -121 -116 -147 -109 -109 -156 -139 -155 -143 -139 -86 -82 -74 -67 -93
0 0 0 0 0 -13 -105 -127 -60 -208 -267 -93 -172 -149 -277 -324 -191 -197 -205 -230 -203 -247 -252 -241 -217 -191 -174 -166 -134 -104 -137 -109 -95 -103 -121 -105 -99 -82 -93 -159 -248 0 -121 -42 -85 -70 -75 -77 -82
0 0 0 0 0 0 -39 -50 -389 -21 -353 -312 -265 -340 -272 -204 -206 -208 -188 -201 -238 -238 -250 -236 -221 -183 -175 -167 -142 -89 -114 -103 -105 -95 -103 -115 -92 -104 -132 -165 -214 -200 -160 -120 -72 -69 -60 -63 -71
0 0 0 0 -86 0 0 -91 -511 -6 -291 -252 -281 -268 -293 -246 -199 -171 -186 -206 -268 -256 -252 -228 -221 -200 -186 -160 -137 -124 -110 -121 -127 -137 -138 -142 -122 -114 -124 -135 -151 -154 -105 -70 -81 -70 -44 -58 -61
Wind_Speed
6 5 2 1 3 5 3 5 4 8 8 13 11 12 8 3 1 4 9 12 17 12 10 12 14 14 15 14 14 15 15 13 13 13 12 12 12 12 12 11 11 11 10 9 8 7 5 5 3
1 5 2 1 5 3 1 5 3 4 13 14 13 10 7 4 6 12 10 15 17 13 9 10 14 14 15 12 12 14 15 13 12 11 11 11 11 10 11 10 10 10 10 9 8 6 5 5 4
2 7 2 3 3 3 4 7 9 7 9 8 8 7 4 7 11 11 13 16 16 12 9 10 14 16 16 15 13 14 13 13 11 10 10 10 10 9 11 10 10 10 9 8 7 7 6 5 7
3 3 2 4 3 3 6 6 5 6 11 13 7 8 4 6 9 9 17 17 13 11 8 13 15 16 15 14 13 12 11 12 10 9 9 9 9 10 11 10 10 10 9 9 9 8 6 6 8
2 2 4 3 6 6 4 7 5 7 6 7 4 5 6 4 13 21 17 15 14 11 9 11 15 15 15 14 12 12 11 10 10 10 10 9 9 10 11 10 11 10 10 8 8 8 7 8 9
3 1 4 4 8 9 5 15 9 13 12 15 13 8 2 12 19 15 16 14 13 13 10 9 14 14 14 13 13 11 10 9 10 10 9 9 9 9 9 10 11 11 10 8 7 7 6 5 7
3 3 1 1 5 8 2 14 10 3 7 4 9 5 4 13 14 16 16 13 12 11 10 6 6 12 15 13 11 11 10 11 10 10 10 9 9 9 9 8 10 11 10 9 8 7 6 5 5
4 4 4 2 1 5 6 5 13 2 4 3 9 7 7 13 17 14 12 13 11 10 8 6 4 5 6 6 12 11 11 10 10 9 9 10 9 9 9 8 10 10 10 10 9 8 7 7 5
6 4 3 4 6 6 4 3 3 2 6 3 4 8 18 16 16 16 11 9 10 8 8 6 5 6 6 6 6 9 11 10 9 8 8 7 3 4 6 8 11 12 11 11 10 8 7 6 8
4 4 8 7 6 5 4 5 4 3 3 6 14 15 19 20 18 18 15 12 10 9 8 7 6 6 6 5 5 4 4 3 3 2 2 3 3 4 6 7 12 12 12 11 9 9 10 7 4
5 5 6 8 6 5 5 6 6 8 0 4 14 18 18 19 16 16 14 14 14 13 9 8 7 7 6 5 4 3 2 2 3 5 5 3 3 4 4 3 4 4 10 3 6 5 3 4 5
4 6 6 7 6 4 7 8 5 6 6 11 13 12 15 15 13 12 13 14 11 13 11 8 8 7 6 5 4 4 3 3 3 4 4 3 3 3 4 3 1 3 2 3 2 2 4 5 6
1 3 7 9 7 5 8 6 6 5 9 13 11 13 13 12 14 15 14 13 12 12 12 10 7 7 7 6 4 4 4 3 4 4 4 3 4 2 2 4 3 3 3 3 3 4 4 4 5
4 3 4 9 8 9 8 4 6 4 9 9 9 8 8 10 14 12 10 12 12 11 11 10 10 8 8 5 6 4 4 4 4 3 4 5 2 3 4 3 2 3 1 3 3 3 4 4 4
7 7 1 9 6 5 9 0 7 6 12 14 12 8 6 9 13 13 13 16 15 14 12 10 10 9 8 7 5 4 4 3 4 4 6 6 5 5 6 4 3 3 2 4 3 3 3 1 1
5 4 2 3 7 6 9 8 7 7 8 9 10 9 14 13 15 16 14 14 11 12 13 11 9 8 8 7 5 4 4 3 4 2 3 3 4 5 5 3 3 4 2 2 2 2 2 2 1
4 6 6 3 7 7 5 6 6 5 2 5 6 6 15 18 11 11 15 12 12 13 13 11 11 12 9 7 5 5 4 3 3 2 1 4 6 5 4 3 3 2 2 3 2 1 2 1 2
5 5 4 5 5 6 7 5 9 9 9 5 5 9 18 17 17 15 12 12 12 10 11 10 9 9 7 5 3 2 2 3 3 3 4 5 5 5 4 3 3 4 3 0 2 1 1 1 2
9 13 9 3 7 8 9 4 9 11 11 19 7 3 10 17 15 14 14 13 11 11 10 11 9 7 6 3 3 2 3 2 2 4 5 6 5 6 5 3 1 1 1 2 2 1 3 2 2
12 11 6 4 3 6 4 1 5 8 12 21 16 11 6 13 9 12 14 15 14 13 13 11 11 10 8 5 3 3 3 3 2 3 4 5 5 5 5 4 3 3 2 2 1 3 1 2 2
7 4 5 4 3 6 7 5 5 4 7 13 12 6 7 14 15 14 15 15 14 13 14 13 12 12 8 7 3 2 2 1 2 1 2 2 5 6 6 6 4 3 3 3 3 4 5 3 1
6 1 8 6 4 4 5 6 6 5 14 12 14 13 8 9 15 17 17 16 16 16 13 12 11 12 9 8 6 5 4 3 3 2 2 4 4 4 1 5 6 4 3 4 3 1 3 4 2
10 9 5 3 1 1 2 3 7 6 8 17 18 15 9 12 18 20 21 19 17 15 14 12 12 12 11 9 8 5 4 4 3 2 3 3 3 4 2 4 4 4 2 2 3 2 3 2 2
4 5 5 5 4 4 4 3 7 5 11 7 14 13 12 10 15 19 19 17 15 14 13 12 12 12 8 9 8 8 8 6 3 2 3 3 3 1 4 3 3 3 3 3 3 2 4 4 3
4 7 4 4 6 7 3 4 10 12 10 12 11 17 17 11 15 18 20 17 17 15 15 13 13 12 10 10 9 8 8 8 7 4 4 5 3 2 5 4 3 3 3 3 3 2 2 4 3
5 9 7 4 4 9 4 7 9 11 8 5 10 7 9 10 11 16 16 18 17 17 15 15 14 12 11 9 9 7 7 4 5 5 4 4 4 4 4 5 5 5 4 3 3 2 3 3 3
7 4 9 4 2 2 3 5 8 10 6 7 9 6 14 15 13 17 16 17 16 16 17 17 14 13 12 12 8 8 7 7 6 7 5 4 4 4 5 6 6 5 4 2 4 4 4 4 3
9 3 1 3 1 3 4 6 8 8 6 9 7 4 6 13 15 13 14 16 15 15 14 14 14 15 14 12 10 8 8 7 6 5 6 5 5 4 4 5 4 6 5 5 5 4 3 4 3
3 4 4 6 4 3 1 8 4 12 2 4 7 7 10 10 13 14 15 14 14 13 14 14 12 12 11 10 10 8 8 7 6 6 6 5 3 4 6 5 5 6 5 6 5 5 5 5 5
7 5 5 7 6 3 5 6 11 12 7 6 7 5 8 6 13 14 15 13 14 14 13 13 12 12 11 11 9 10 8 6 7 7 7 6 7 5 6 6 6 6 6 6 6 6 5 6 6
Wind_Direction
186 161 134 102 48 67 90 217 218 320 342 343 87 96 100 65 195 176 134 146 135 140 148 153 145 146 145 153 137 129 125 127 127 123 121 116 120 126 125 126 130 135 137 154 163 180 183 177 157
134 192 212 68 81 53 321 287 200 337 309 312 94 94 50 74 56 111 115 144 139 141 147 148 144 144 146 136 140 138 137 137 135 135 132 132 131 134 127 124 135 135 136 143 149 164 173 170 145
225 235 97 108 108 110 183 232 283 277 293 291 346 78 78 113 105 135 131 137 136 142 141 152 147 143 146 149 144 148 148 149 143 137 135 135 135 135 125 132 134 127 129 135 142 158 167 144 116
328 22 19 51 50 44 146 199 201 279 283 281 142 75 64 108 131 134 139 139 134 138 143 149 147 146 143 139 139 133 141 142 140 143 141 138 137 132 134 136 135 134 133 150 149 150 159 135 119
47 55 48 53 6 131 194 86 297 252 216 134 109 99 96 55 125 135 142 145 139 138 149 150 156 150 146 143 140 139 150 155 156 156 152 147 139 146 147 146 135 136 142 150 152 152 162 145 140
6 110 43 37 338 334 192 171 176 228 101 92 94 100 72 136 136 146 142 141 144 144 148 159 157 149 142 143 141 148 154 163 164 159 146 152 149 145 138 143 148 151 145 149 152 161 175 165 143
171 87 62 153 36 323 192 169 325 186 113 102 127 103 128 150 137 136 143 140 142 144 143 153 162 153 148 145 152 156 160 162 171 165 161 156 158 158 159 159 151 151 154 160 176 183 175 162 133
153 115 137 290 164 260 291 132 187 124 70 66 144 143 174 171 148 134 131 138 139 145 148 148 167 138 130 144 159 163 162 173 184 176 168 165 169 169 172 175 173 169 171 173 184 176 166 167 130
135 76 151 205 172 240 278 146 50 78 102 160 223 148 163 159 131 123 132 133 138 154 160 157 166 152 143 145 169 168 172 179 181 185 175 174 164 194 202 189 195 182 182 188 187 191 190 188 145
107 127 205 184 178 228 187 111 111 88 29 31 112 124 137 141 146 144 155 153 161 164 172 171 169 165 158 154 149 161 191 163 164 184 211 188 196 220 219 217 209 201 191 197 193 204 203 193 94
187 188 177 176 208 243 134 112 128 127 31 211 126 145 152 149 154 154 159 163 173 174 170 181 169 169 165 149 156 168 195 184 192 208 218 216 239 223 224 200 219 204 203 177 184 211 212 169 140
145 249 151 150 200 178 156 141 126 196 201 169 169 174 161 161 156 148 158 171 160 177 172 172 161 162 153 163 167 175 189 198 204 211 225 218 252 241 203 156 208 255 278 193 175 195 214 192 152
192 280 141 148 166 170 137 170 176 199 154 186 185 164 170 170 159 166 170 168 164 170 167 182 165 164 165 172 168 180 207 213 210 198 221 210 255 182 165 150 206 207 226 163 207 198 193 200 183
280 250 134 164 185 166 150 201 142 161 159 179 202 205 165 190 177 159 161 162 162 165 176 169 163 161 164 167 172 190 195 226 217 228 235 217 191 159 109 147 239 151 98 168 191 196 194 179 181
339 304 213 180 174 166 114 10 213 191 164 177 194 217 216 179 169 167 168 171 165 177 173 164 155 156 159 182 182 187 207 206 228 228 225 224 166 149 149 155 125 87 16 74 91 178 255 205 286
341 323 202 261 167 156 105 257 226 185 164 197 209 218 214 170 184 175 174 171 176 159 168 158 168 168 175 176 189 189 196 224 250 267 192 211 179 157 164 140 131 127 73 137 110 108 273 103 213
8 256 221 275 194 144 129 261 254 86 335 256 293 306 161 172 190 177 173 166 167 166 164 163 163 172 179 175 183 187 174 214 243 196 157 197 195 169 166 101 126 151 122 60 47 329 231 210 285
274 314 256 203 225 184 187 239 75 78 345 312 20 297 166 190 185 183 178 162 169 166 165 159 171 171 172 163 170 181 146 222 249 234 236 238 193 172 152 157 138 144 175 36 174 220 184 158 236
260 273 266 238 222 162 188 151 168 145 100 290 241 56 216 187 184 175 174 167 158 164 166 168 157 182 156 165 159 179 191 224 236 239 249 218 182 191 188 183 147 104 109 224 161 283 138 40 296
263 258 289 273 323 62 41 308 269 227 198 221 219 167 203 211 165 172 171 170 173 172 176 171 175 175 176 175 177 153 156 221 215 241 221 184 169 192 196 182 195 230 57 287 240 207 136 97 337
267 220 280 188 88 129 136 319 254 239 257 254 265 227 188 178 186 184 178 179 170 174 178 180 176 180 178 180 145 84 78 34 13 297 97 172 197 192 197 192 220 194 167 152 195 193 139 151 261
260 350 108 103 106 214 168 246 255 205 245 244 249 240 203 222 195 187 187 183 177 186 178 174 172 178 186 177 170 159 171 158 216 230 209 170 192 187 237 171 192 203 160 170 212 200 125 127 150
237 111 128 147 147 84 278 87 273 119 246 245 246 232 221 222 195 189 190 186 182 178 176 178 176 184 189 180 176 171 174 190 203 181 211 192 194 216 236 203 180 230 212 180 200 167 131 167 158
232 83 49 56 46 351 236 140 287 189 219 255 232 253 245 217 191 192 185 175 177 178 176 177 175 187 192 184 179 178 192 196 188 174 193 235 249 266 234 249 174 225 209 182 196 195 147 173 201
115 57 341 345 12 226 58 28 245 270 238 227 205 221 224 204 195 179 179 172 182 175 174 180 183 191 194 192 186 185 197 190 192 182 183 199 222 226 236 216 217 231 205 196 204 196 207 171 199
172 147 162 215 222 289 125 207 239 240 230 239 214 199 177 199 189 179 173 175 177 177 176 182 184 192 187 195 191 189 185 178 195 197 195 220 213 222 233 213 211 209 197 194 230 214 213 199 221
260 201 191 157 18 230 224 283 331 299 344 342 299 268 205 178 196 178 169 174 176 178 183 185 183 193 190 194 187 188 186 185 197 206 197 212 225 238 252 196 202 217 206 229 238 226 217 201 228
164 186 97 16 237 278 320 309 241 283 282 322 5 80 106 158 170 170 162 167 182 182 184 186 187 192 191 186 188 192 190 191 196 193 212 221 241 234 212 171 191 227 226 237 222 212 209 199 249
271 290 41 122 127 184 200 260 287 211 223 15 25 358 131 140 155 160 163 163 173 174 180 184 187 190 188 188 185 186 194 192 189 199 216 216 211 202 204 206 198 232 236 234 213 213 218 220 253
118 137 122 109 291 113 165 299 20 27 29 339 98 20 41 182 161 160 163 160 161 169 174 181 185 186 189 187 183 190 191 188 200 212 217 217 221 199 198 205 201 218 229 230 227 230 225 226 241